Cape Cod CGAS, MA

11:37 AM EDT on July 26, 2017 (GMT -0400)
Cape Cod Coast Guard Air Station

Weather History for KFMH - January, 2014

Change the Weather History Date:

Friday, January 24, 2014

  Actual Average Record
Temperature  
Mean Temperature 13 °F -  
Max Temperature 21 °F 32 °F 60 °F (1999)
Min Temperature 5 °F 16 °F -2 °F (2005)
Degree Days  
Heating Degree Days 52    
Moisture  
Dew Point -4 °F    
Average Humidity 52    
Maximum Humidity 72    
Minimum Humidity 32    
Precipitation  
Precipitation 0.00 in - - ()
Sea Level Pressure  
Sea Level Pressure 30.19 in    
Wind  
Wind Speed 12 mph (West)    
Max Wind Speed 18 mph    
Max Gust Speed 25 mph    
Visibility 10 miles    
Events      
Averages and records for this station are not official NWS values.
T = Trace of Precipitation, MM = Missing Value Source: NWS Daily Summary

Daily Weather History Graph

Daily Weather History Graph

Search for Another Location

Airport or City:

Trip Planner

Search our weather history database for the weather conditions in past years. The results will help you decide how hot, cold, wet, or windy it might be!

Date:

Astronomy

Jan. 24, 2014 Rise Set
Actual Time 7:01 AM EST 4:47 PM EST
Civil Twilight 6:31 AM EST 5:17 PM EST
Nautical Twilight 5:57 AM EST 5:51 PM EST
Astronomical Twilight 5:24 AM EST 6:24 PM EST
Moon 12:23 AM EST (1/24) 11:05 AM EST (1/24)
Length of Visible Light 10h 46m
Length of Day
9h 46m
Last Quarter, 45% of the Moon is Illuminated
Jan 24
Last Quarter
Jan 30
New
Feb 6
First Quarter
Feb 14
Full
Feb 22
Last Quarter

Hourly Weather History & Observations

Time (EST) Temp. Windchill Dew Point Humidity Pressure Visibility Wind Dir Wind Speed Gust Speed Precip Events Conditions
12:15 AM 10.4 °F -4.1 °F -4.0 °F 52% 30.17 in 10.0 mi West 11.5 mph - N/A   Clear
12:35 AM 10.4 °F -4.1 °F -4.0 °F 52% 30.17 in 10.0 mi West 11.5 mph - N/A   Clear
12:55 AM 12.2 °F -4.3 °F -2.2 °F 53% 30.17 in 10.0 mi West 16.1 mph - N/A   Clear
1:15 AM 10.4 °F -5.4 °F -2.2 °F 57% 30.17 in 10.0 mi WNW 13.8 mph - N/A   Clear
1:35 AM 10.4 °F -4.8 °F -2.2 °F 57% 30.17 in 10.0 mi West 12.7 mph 19.6 mph N/A   Clear
1:55 AM 10.4 °F -7.7 °F -2.2 °F 57% 30.16 in 10.0 mi West 18.4 mph 25.3 mph N/A   Clear
2:15 AM 10.4 °F -4.1 °F -2.2 °F 57% 30.17 in 10.0 mi West 11.5 mph 19.6 mph N/A   Clear
2:35 AM 10.4 °F -4.1 °F -2.2 °F 57% 30.17 in 10.0 mi West 11.5 mph 19.6 mph N/A   Clear
2:55 AM 10.4 °F -6.0 °F -2.2 °F 57% 30.17 in 10.0 mi West 15.0 mph 20.7 mph N/A   Clear
3:15 AM 10.4 °F -6.0 °F -2.2 °F 57% 30.17 in 10.0 mi WNW 15.0 mph 23.0 mph N/A   Clear
3:35 AM 10.4 °F -4.8 °F -2.2 °F 57% 30.17 in 10.0 mi WNW 12.7 mph 19.6 mph N/A   Clear
3:55 AM 8.6 °F -7.7 °F -2.2 °F 62% 30.17 in 10.0 mi WNW 13.8 mph 21.9 mph N/A   Clear
4:15 AM 8.6 °F -8.3 °F -2.2 °F 62% 30.17 in 10.0 mi WNW 15.0 mph 24.2 mph N/A   Clear
4:35 AM 8.6 °F -8.3 °F -2.2 °F 62% 30.17 in 10.0 mi WNW 15.0 mph - N/A   Clear
4:55 AM 8.6 °F -5.5 °F -2.2 °F 62% 30.18 in 10.0 mi WNW 10.4 mph 19.6 mph N/A   Clear
5:15 AM 8.6 °F -7.0 °F -4.0 °F 57% 30.18 in 10.0 mi WNW 12.7 mph 21.9 mph N/A   Clear
5:35 AM 8.6 °F -7.7 °F -4.0 °F 57% 30.19 in 10.0 mi West 13.8 mph - N/A   Clear
5:55 AM 8.6 °F -6.3 °F -4.0 °F 57% 30.20 in 10.0 mi WNW 11.5 mph 19.6 mph N/A   Clear
6:15 AM 8.6 °F -6.3 °F -4.0 °F 57% 30.21 in 10.0 mi WNW 11.5 mph 18.4 mph N/A   Clear
6:35 AM 6.8 °F -8.6 °F -4.0 °F 61% 30.22 in 10.0 mi WNW 11.5 mph 17.3 mph N/A   Clear
6:55 AM 6.8 °F -7.8 °F -4.0 °F 61% 30.22 in 10.0 mi WNW 10.4 mph 17.3 mph N/A   Clear
7:15 AM 6.8 °F -10.0 °F -5.8 °F 56% 30.23 in 10.0 mi WNW 13.8 mph - N/A   Clear
7:35 AM 6.8 °F -10.7 °F -5.8 °F 56% 30.23 in 10.0 mi WNW 15.0 mph - N/A   Clear
7:55 AM 6.8 °F -10.7 °F -5.8 °F 56% 30.23 in 10.0 mi WNW 15.0 mph 20.7 mph N/A   Clear
8:15 AM 8.6 °F -7.7 °F -5.8 °F 52% 30.24 in 10.0 mi WNW 13.8 mph 20.7 mph N/A   Clear
8:35 AM 8.6 °F -10.0 °F -5.8 °F 52% 30.24 in 10.0 mi WNW 18.4 mph 25.3 mph N/A   Clear
8:55 AM 8.6 °F -10.0 °F -5.8 °F 52% 30.24 in 10.0 mi WNW 18.4 mph - N/A   Clear
9:15 AM 8.6 °F -10.0 °F -5.8 °F 52% 30.24 in 10.0 mi WNW 18.4 mph 25.3 mph N/A   Clear
9:35 AM 8.6 °F -7.0 °F -5.8 °F 52% 30.25 in 10.0 mi NW 12.7 mph 19.6 mph N/A   Clear
9:55 AM 10.4 °F -5.4 °F -5.8 °F 48% 30.24 in 10.0 mi WNW 13.8 mph - N/A   Clear
10:15 AM 10.4 °F -4.8 °F -5.8 °F 48% 30.24 in 10.0 mi WNW 12.7 mph - N/A   Clear
10:35 AM 10.4 °F -4.8 °F -5.8 °F 48% 30.24 in 10.0 mi West 12.7 mph 19.6 mph N/A   Clear
10:55 AM 12.2 °F -3.1 °F -5.8 °F 45% 30.23 in 10.0 mi WNW 13.8 mph - N/A   Clear
11:15 AM 12.2 °F -2.5 °F -5.8 °F 45% 30.22 in 10.0 mi West 12.7 mph 19.6 mph N/A   Clear
11:35 AM 12.2 °F -2.5 °F -5.8 °F 45% 30.21 in 10.0 mi West 12.7 mph - N/A   Clear
11:55 AM 12.2 °F -1.8 °F -5.8 °F 45% 30.20 in 10.0 mi West 11.5 mph - N/A   Clear
12:15 PM 14.0 °F -0.8 °F -5.8 °F 41% 30.20 in 10.0 mi WNW 13.8 mph - N/A   Clear
12:35 PM 14.0 °F -0.8 °F -5.8 °F 41% 30.19 in 10.0 mi West 13.8 mph - N/A   Clear
12:55 PM 14.0 °F -0.2 °F -4.0 °F 45% 30.18 in 10.0 mi West 12.7 mph - N/A   Clear
1:15 PM 14.0 °F -0.8 °F -5.8 °F 41% 30.18 in 10.0 mi West 13.8 mph 19.6 mph N/A   Clear
1:55 PM 15.8 °F 2.7 °F -5.8 °F 38% 30.18 in 10.0 mi WNW 11.5 mph - N/A   Clear
2:15 PM 15.8 °F 2.1 °F -5.8 °F 38% 30.18 in 10.0 mi West 12.7 mph - N/A   Clear
2:35 PM 15.8 °F 5.1 °F -5.8 °F 38% 30.18 in 10.0 mi West 8.1 mph 15.0 mph N/A   Clear
2:55 PM 15.8 °F 2.1 °F -5.8 °F 38% 30.18 in 10.0 mi WNW 12.7 mph - N/A   Clear
3:15 PM 17.6 °F 5.0 °F -4.0 °F 38% 30.18 in 10.0 mi West 11.5 mph - N/A   Clear
3:35 PM 15.8 °F 2.7 °F -4.0 °F 41% 30.18 in 10.0 mi West 11.5 mph 17.3 mph N/A   Clear
3:55 PM 15.8 °F 2.1 °F -4.0 °F 41% 30.18 in 10.0 mi West 12.7 mph - N/A   Clear
4:15 PM 15.8 °F 2.1 °F -4.0 °F 41% 30.18 in 10.0 mi West 12.7 mph - N/A   Clear
4:35 PM 14.0 °F 5.1 °F -4.0 °F 45% 30.17 in 10.0 mi West 5.8 mph 12.7 mph N/A   Clear
4:55 PM 12.2 °F 0.7 °F -4.0 °F 48% 30.17 in 10.0 mi West 8.1 mph - N/A   Clear
5:15 PM 12.2 °F 2.9 °F -5.8 °F 45% 30.17 in 10.0 mi West 5.8 mph - N/A   Clear
5:35 PM 12.2 °F 0.7 °F -5.8 °F 45% 30.18 in 10.0 mi West 8.1 mph - N/A   Clear
5:55 PM 12.2 °F 0.7 °F -5.8 °F 45% 30.18 in 10.0 mi West 8.1 mph - N/A   Clear
6:15 PM 10.4 °F -0.4 °F -5.8 °F 48% 30.19 in 10.0 mi West 6.9 mph - N/A   Clear
6:35 PM 10.4 °F 0.8 °F -5.8 °F 48% 30.19 in 10.0 mi West 5.8 mph - N/A   Clear
6:55 PM 10.4 °F -0.4 °F -5.8 °F 48% 30.19 in 10.0 mi West 6.9 mph - N/A   Clear
7:15 PM 8.6 °F 0.1 °F -5.8 °F 52% 30.19 in 10.0 mi West 4.6 mph - N/A   Clear
7:35 PM 10.4 °F 2.2 °F -4.0 °F 52% 30.19 in 10.0 mi WNW 4.6 mph - N/A   Clear
7:55 PM 6.8 °F - -5.8 °F 56% 30.19 in 10.0 mi Calm Calm - N/A   Clear
8:15 PM 5.0 °F - -5.8 °F 61% 30.19 in 10.0 mi Calm Calm - N/A   Mostly Cloudy
8:35 PM 5.0 °F - -5.8 °F 61% 30.18 in 10.0 mi Calm Calm - N/A   Clear
8:55 PM 6.8 °F - -5.8 °F 56% 30.18 in 10.0 mi Calm Calm - N/A   Clear
9:15 PM 6.8 °F - -4.0 °F 61% 30.17 in 10.0 mi Calm Calm - N/A   Overcast
9:35 PM 8.6 °F - -4.0 °F 57% 30.16 in 10.0 mi Calm Calm - N/A   Overcast
9:55 PM 8.6 °F - -4.0 °F 57% 30.16 in 10.0 mi Calm Calm - N/A   Overcast
10:15 PM 8.6 °F 0.1 °F -2.2 °F 62% 30.15 in 10.0 mi SSE 4.6 mph - N/A   Overcast
10:35 PM 10.4 °F 2.2 °F -0.4 °F 62% 30.14 in 10.0 mi South 4.6 mph - N/A   Overcast
10:55 PM 10.4 °F - -0.4 °F 62% 30.13 in 10.0 mi Calm Calm - N/A   Overcast
11:15 PM 8.6 °F - -0.4 °F 67% 30.11 in 10.0 mi Calm Calm - N/A   Overcast
11:35 PM 8.6 °F 2.0 °F -2.2 °F 62% 30.11 in 10.0 mi SE 3.5 mph - N/A   Mostly Cloudy
11:55 PM 6.8 °F -2.0 °F -0.4 °F 72% 30.09 in 10.0 mi South 4.6 mph - N/A   Overcast